This demonstration page uses our WeatherBlox Daily Observations layout. Learn more.

Left ArrowRight Arrow

44.89941, -97.11507

Hourly Observations for March 14, 2017

Temp ( °F °C ) Dew Point ( °F °C ) Humidity (%) Winds ( mph kmh ) Pressure ( in mb ) Visibility ( mi km ) Precip ( " mm )
12:53 am 00:53 Clear 1 -17.2 -3 -19.4 83 83 Calm 30.48 1032 10 16 0.00 0.00
1:53 am 01:53 Clear -4 -20 -8 -22.2 83 83 NNE 3 6 30.48 1032 10 16 0.00 0.00
2:53 am 02:53 Clear 4 -15.6 -1 -18.3 80 80 Calm 30.46 1031 10 16 0.00 0.00
3:53 am 03:53 Mostly Cloudy 6 -14.4 -1 -18.3 73 73 NE 3 6 30.46 1032 10 16 0.00 0.00
4:53 am 04:53 Cloudy 9 -12.8 1 -17.2 70 70 E 5 7 30.45 1031 10 16 0.00 0.00
5:53 am 05:53 Mostly Cloudy 8 -13.3 1 -17.2 73 73 ESE 6 9 30.45 1031 10 16 0.00 0.00
6:53 am 06:53 Cloudy 9 -12.8 1 -17.2 70 70 E 5 7 30.46 1032 10 16 0.00 0.00
7:53 am 07:53 Mostly Sunny 10 -12.2 1 -17.2 67 67 E 5 7 30.48 1032 10 16 0.00 0.00
8:53 am 08:53 Mostly Cloudy 14 -10 2 -16.7 58 58 ESE 7 11 30.50 1033 10 16 0.00 0.00
9:53 am 09:53 Mostly Cloudy 14 -10 3 -16.1 61 61 SE 10 17 30.52 1034 10 16 0.00 0.00
10:53 am 10:53 Cloudy 16 -8.9 5 -15 62 62 SE 9 15 30.53 1034 10 16 0.00 0.00
11:53 am 11:53 Mostly Cloudy 18 -7.8 5 -15 57 57 SSE 10 17 30.54 1034 10 16 0.00 0.00
12:53 pm 12:53 Sunny 19 -7.2 5 -15 54 54 SE 12 19 30.54 1034 10 16 0.00 0.00
1:53 pm 13:53 Sunny 20 -6.7 1 -17.2 43 43 SE 15 24 30.55 1035 10 16 0.00 0.00
2:53 pm 14:53 Sunny 20 -6.7 2 -16.7 45 45 SSE 13 20 30.53 1034 10 16 0.00 0.00
3:53 pm 15:53 Sunny 19 -7.2 3 -16.1 49 49 SSE 8 13 30.51 1033 10 16 0.00 0.00
4:53 pm 16:53 Sunny 19 -7.2 4 -15.6 51 51 SSE 13 20 30.51 1033 10 16 0.00 0.00
5:53 pm 17:53 Sunny 19 -7.2 4 -15.6 51 51 S 10 17 30.50 1033 10 16 0.00 0.00
6:53 pm 18:53 Sunny 17 -8.3 3 -16.1 54 54 SSE 8 13 30.50 1033 10 16 0.00 0.00
7:53 pm 19:53 Clear 14 -10 2 -16.7 58 58 SE 5 7 30.51 1033 10 16 0.00 0.00
8:53 pm 20:53 Clear 12 -11.1 3 -16.1 67 67 SE 5 7 30.50 1033 10 16 0.00 0.00
9:53 pm 21:53 Clear 10 -12.2 1 -17.2 67 67 SE 5 7 30.48 1032 10 16 0.00 0.00
10:53 pm 22:53 Clear 7 -13.9 -1 -18.3 70 70 SSE 7 11 30.49 1033 10 16 0.00 0.00
11:53 pm 23:53 Clear 8 -13.3 0 -17.8 69 69 SSE 9 15 30.48 1032 10 16 0.00 0.00

Powered by AerisWeather